Powrót do katalogu

SJ-11-01

AktywnyNaukaSSO
NORAD 36088·PAYLOAD·🇨🇳 China

Wystrzelony Nov 12, 2009 z Jiuquan Satellite Launch Center

Loading…

Następne Przeloty (najbliższe 24 godziny)

TLE

ŚwieżeSource: Space-Track

Epoka: Sep 14, 2026, 14:54 UTC

1 36088U 09061A   26257.62104969  .00000111  00000-0  30214-4 0  9997
2 36088  98.0157 236.1196 0012205  98.4345  36.6271 14.63757565897578

Śledź SJ-11-01 w czasie rzeczywistym z AllMySat

Download on the App Store